• Join FlightAware (Why Join?)
  • Login
  • US Flag GB Flag 
04:57 EDT


 

Airport Tracker/Info


-or-


 

Live Flight TrackerFlight Track Log ✈ UPS1055 ✈ 20-Jun-2013 ✈ KMHT - KPHL

Flight Track Log - Related Links

Times and Time Zones

All times are in EDT time to prevent confusion due to time zone crossing. See the UPS1055 flight status page for this flight to view local times or setup timezone preferences in your user account.

Time Position Orientation Groundspeed Altitude Reporting Facility
EDT Latitude Longitude Course Direction KTS MPH feet Rate Location/Type
22:42 42.9333 -71.4333 340° North 160 184 1,200  Level KA90
22:43 42.9667 -71.4500 340° North 180 207 2,600 2,940 Climbing KA90
22:45 43.0144 -71.6222 291° West 232 267 9,200 2,760 Climbing Boston Center
22:46 43.0150 -71.7189 270° West 271 312 11,500 2,220 Climbing Boston Center
22:47 43.0136 -71.8608 269° West 333 383 13,700 2,400 Climbing Boston Center
22:48 43.0144 -71.9858 271° West 363 418 16,300 2,400 Climbing Boston Center
22:49 43.0106 -72.1392 268° West 368 423 18,600 1,980 Climbing Boston Center
22:50 43.0108 -72.2556 270° West 374 430 20,300 1,980 Climbing Boston Center
22:51 43.0131 -72.4203 271° West 380 437 22,600 1,980 Climbing Boston Center
22:52 43.0108 -72.5708 269° West 398 458 24,300 1,800 Climbing Boston Center
22:53 43.0022 -72.7439 266° West 414 476 26,200 1,560 Climbing Boston Center
22:54 42.9747 -72.8969 256° West 414 476 27,500 900 Climbing Boston Center
22:55 42.9325 -73.0328 247° West 425 489 28,000 240 Climbing Boston Center
22:56 42.8753 -73.1794 242° Southwest 430 495 28,000  Level Boston Center
22:57 42.8200 -73.3261 243° Southwest 435 501 28,000  Level Boston Center
22:58 42.7625 -73.4722 242° Southwest 440 506 28,000  Level Boston Center
22:59 42.7069 -73.6183 243° Southwest 440 506 28,000  Level Boston Center
23:00 42.6450 -73.7639 240° Southwest 440 506 28,000  Level Boston Center
23:01 42.5931 -73.9122 245° Southwest 445 512 28,000  Level Boston Center
23:02 42.5369 -74.0575 242° Southwest 440 506 28,000 -420 Level Boston Center
23:03 42.4806 -74.2025 242° Southwest 440 506 27,200 -900 Descending Boston Center
23:04 42.4239 -74.3469 242° Southwest 440 506 26,200 -600 Descending Boston Center
23:05 42.3631 -74.4969 241° Southwest 446 513 26,000 -120 Descending Boston Center
23:07 42.2583 -74.7522 241° Southwest 444 511 26,000 -60 Level New York Center
23:08 42.2014 -74.8972 242° Southwest 444 511 25,900 -1,140 Descending New York Center
23:09 42.1269 -75.0044 227° Southwest 444 511 23,800 -2,520 Descending New York Center
23:10 42.0242 -75.0842 210° Southwest 424 488 20,900 -2,400 Descending New York Center
23:11 41.9144 -75.1747 212° Southwest 430 495 19,000 -960 Descending New York Center
23:12 41.8158 -75.2544 211° Southwest 425 489 19,000  Level New York Center
23:13 41.7147 -75.3364 211° Southwest 425 489 19,000 -900 Level New York Center
23:14 41.6247 -75.4081 211° Southwest 425 489 17,300 -2,520 Descending New York Center
23:15 41.5192 -75.4950 212° Southwest 419 482 14,200 -2,700 Descending New York Center
23:16 41.4267 -75.5686 211° Southwest 414 476 12,100 -1,140 Descending New York Center
23:17 41.3425 -75.6372 211° Southwest 404 465 12,000 -60 Descending New York Center
23:18 41.2342 -75.6928 201° Southwest 397 457 12,000  Level New York Center
23:19 41.1364 -75.6886 178° South 382 440 12,000  Level New York Center
23:20 41.0247 -75.6639 171° South 393 452 12,000  Level New York Center
23:21 40.9100 -75.6172 163° South 403 464 12,000  Level New York Center
23:22 40.8033 -75.5767 164° South 403 464 12,000  Level New York Center
23:23 40.6969 -75.5308 162° South 397 457 12,000 -660 Level New York Center
23:24 40.5964 -75.4939 164° South 392 451 10,700 -1,020 Descending New York Center
23:25 40.5122 -75.4608 163° South 373 429 10,000 -360 Descending New York Center
23:26 40.4222 -75.4167 160° South 330 380 10,000  Level New York Center
23:27 40.3528 -75.3792 158° South 308 354 10,000 -600 Level New York Center
23:28 40.2817 -75.3364 155° Southeast 303 349 8,800 -1,260 Descending New York Center
23:29 40.2175 -75.2694 141° Southeast 293 337 7,500 -1,380 Descending New York Center
23:30 40.1514 -75.1947 139° Southeast 293 337 6,100 -900 Descending New York Center
23:30 40.1000 -75.1500 146° Southeast 284 327 6,000 -600 Descending Philadelphia TRACON
23:32 40.0500 -75.0833 134° Southeast 262 302 5,000 -1,200 Descending Philadelphia TRACON
23:33 40.0000 -75.0167 134° Southeast 253 291 3,500 -1,020 Descending Philadelphia TRACON
23:34 39.9333 -75.0333 191° South 212 244 3,000 -480 Descending Philadelphia TRACON
23:35 39.9000 -75.0833 229° Southwest 151 174 2,600 -540 Descending Philadelphia TRACON
23:35 39.9000 -75.1167 270° West 127 146 2,000 -780 Descending Philadelphia TRACON
23:36 39.8833 -75.1667 247° West 129 148 1,200 -720 Descending Philadelphia TRACON
23:37 39.8833 -75.2000 270° West 108 124 600 -600 Descending Philadelphia TRACON
23:40 39.8667 -75.2333 247° West  Level FlightAware Approximate